Location: ??????
(41.3164°N, 22.6615°E)
Time: 01:45:30
(UTC+00:00)

Timation 2 Rocket - Pass Details

Date: 16 October 2021
Orbit: 904 x 1077 km, 70.0° (Epoch: 02 December)

Event Time Altitude Azimuth Distance (km) Brightness Sun altitude
Rises 16:02:56 0° 337° (NNW) 3,882 7.3 -3.8°
Reaches altitude 10° 16:05:40 10° 342° (NNW) 2,921 6.6 -4.3°
Maximum altitude 16:12:26 55° 60° (ENE) 1,269 4.3 -5.6°
Drops below altitude 10° 16:18:59 10° 137° (SE) 2,843 6.1 -6.8°
Sets 16:21:37 0° 142° (SE) 3,770 6.7 -7.3°
